Date_UTC,IAGA,MLT,MLAT,IGRF_DECL,SZA,N,E,Z
2015-08-15 08:00:00,NAL,10.38,76.57,5.11,68.84,7.4,-0.8,27.4
2015-08-15 08:01:00,NAL,10.40,76.57,5.11,68.80,8.0,2.5,32.4
2015-08-15 08:02:00,NAL,10.41,76.57,5.11,68.76,6.5,3.2,33.9
2015-08-15 08:03:00,NAL,10.43,76.57,5.11,68.72,5.9,0.1,37.4
2015-08-15 08:04:00,NAL,10.45,76.57,5.11,68.69,2.5,5.5,42.2
2015-08-15 08:05:00,NAL,10.46,76.57,5.11,68.65,0.6,8.8,42.5
2015-08-15 08:06:00,NAL,10.48,76.57,5.11,68.61,2.5,5.2,44.3
2015-08-15 08:07:00,NAL,10.50,76.57,5.11,68.58,5.3,12.3,52.2
2015-08-15 08:08:00,NAL,10.51,76.57,5.11,68.54,3.8,16.4,52.2
2015-08-15 08:09:00,NAL,10.53,76.57,5.11,68.50,9.0,20.6,53.8
2015-08-15 08:10:00,NAL,10.55,76.57,5.11,68.47,9.2,21.3,50.8
2015-08-15 08:11:00,NAL,10.56,76.57,5.11,68.43,10.9,24.8,51.3
2015-08-15 08:12:00,NAL,10.58,76.57,5.11,68.40,11.3,25.5,50.1
2015-08-15 08:13:00,NAL,10.60,76.57,5.11,68.36,12.6,26.5,48.0
2015-08-15 08:14:00,NAL,10.61,76.57,5.11,68.32,10.9,25.3,41.2
2015-08-15 08:15:00,NAL,10.63,76.57,5.11,68.29,10.3,22.4,32.7
2015-08-15 08:16:00,NAL,10.65,76.57,5.11,68.25,10.1,17.3,25.3
2015-08-15 08:17:00,NAL,10.66,76.57,5.11,68.22,14.7,11.8,17.7
2015-08-15 08:18:00,NAL,10.68,76.57,5.11,68.18,18.0,2.3,9.7
2015-08-15 08:19:00,NAL,10.70,76.57,5.11,68.15,18.7,5.7,17.2
2015-08-15 08:20:00,NAL,10.71,76.57,5.11,68.11,14.2,15.7,30.2
2015-08-15 08:21:00,NAL,10.73,76.57,5.11,68.08,8.2,27.4,42.6
2015-08-15 08:22:00,NAL,10.75,76.57,5.11,68.04,1.8,30.3,44.3
2015-08-15 08:23:00,NAL,10.76,76.57,5.11,68.01,0.5,26.6,37.6
2015-08-15 08:24:00,NAL,10.78,76.57,5.11,67.97,5.5,20.4,26.3
2015-08-15 08:25:00,NAL,10.80,76.57,5.11,67.94,8.8,14.8,16.8
2015-08-15 08:26:00,NAL,10.81,76.57,5.11,67.91,8.7,12.6,15.9
2015-08-15 08:27:00,NAL,10.83,76.57,5.11,67.87,5.7,15.3,22.1
2015-08-15 08:28:00,NAL,10.85,76.57,5.11,67.84,0.6,19.4,30.1
2015-08-15 08:29:00,NAL,10.86,76.57,5.11,67.81,-51.5,-3.9,16.9
2015-08-15 08:30:00,NAL,10.88,76.57,5.11,67.77,-19.7,-88.3,-33.0
2015-08-15 08:31:00,NAL,10.90,76.57,5.11,67.74,49.7,-83.5,-19.8
2015-08-15 08:32:00,NAL,10.91,76.57,5.11,67.71,130.9,-76.7,1.9
2015-08-15 08:33:00,NAL,10.93,76.57,5.11,67.67,207.6,-65.0,33.9
2015-08-15 08:34:00,NAL,10.95,76.57,5.11,67.64,233.7,-37.7,76.6
2015-08-15 08:35:00,NAL,10.96,76.57,5.11,67.61,235.3,-65.2,73.1
2015-08-15 08:36:00,NAL,10.98,76.57,5.11,67.58,276.6,-110.3,54.7
2015-08-15 08:37:00,NAL,11.00,76.57,5.11,67.54,314.8,-73.2,124.6
2015-08-15 08:38:00,NAL,11.01,76.57,5.11,67.51,350.1,-44.2,155.9
2015-08-15 08:39:00,NAL,11.03,76.57,5.11,67.48,407.2,-23.9,157.4
2015-08-15 08:40:00,NAL,11.05,76.57,5.11,67.45,408.2,-15.4,146.4
2015-08-15 08:41:00,NAL,11.07,76.57,5.11,67.42,407.7,20.5,161.1
2015-08-15 08:42:00,NAL,11.08,76.57,5.11,67.38,388.0,47.8,165.3
2015-08-15 08:43:00,NAL,11.10,76.57,5.11,67.35,387.8,31.2,120.3
2015-08-15 08:44:00,NAL,11.12,76.57,5.11,67.32,391.1,21.4,84.2
2015-08-15 08:45:00,NAL,11.13,76.57,5.11,67.29,416.5,18.9,55.2
2015-08-15 08:46:00,NAL,11.15,76.57,5.11,67.26,434.4,2.5,20.5
2015-08-15 08:47:00,NAL,11.17,76.57,5.11,67.23,450.1,-30.8,0.4
2015-08-15 08:48:00,NAL,11.18,76.57,5.11,67.20,448.1,-41.5,32.9
2015-08-15 08:49:00,NAL,11.20,76.57,5.11,67.17,417.8,-2.0,58.2
2015-08-15 08:50:00,NAL,11.22,76.57,5.11,67.14,412.4,-12.0,36.7
2015-08-15 08:51:00,NAL,11.23,76.57,5.11,67.11,434.5,-26.7,35.1
2015-08-15 08:52:00,NAL,11.25,76.57,5.11,67.08,441.0,-16.2,31.6
2015-08-15 08:53:00,NAL,11.27,76.57,5.11,67.05,441.6,-48.0,-11.5
2015-08-15 08:54:00,NAL,11.28,76.57,5.11,67.02,439.3,-58.3,4.6
2015-08-15 08:55:00,NAL,11.30,76.57,5.11,66.99,424.8,-4.3,60.4
2015-08-15 08:56:00,NAL,11.32,76.57,5.11,66.96,426.1,12.5,62.7
2015-08-15 08:57:00,NAL,11.33,76.57,5.11,66.93,415.8,1.4,35.8
2015-08-15 08:58:00,NAL,11.35,76.57,5.11,66.90,429.4,-21.6,-1.7
2015-08-15 08:59:00,NAL,11.37,76.57,5.11,66.88,429.4,-34.8,-13.7
2015-08-15 09:00:00,NAL,11.38,76.57,5.11,66.85,406.0,-30.0,-20.8
2015-08-15 09:01:00,NAL,11.40,76.57,5.11,66.82,402.7,-49.7,-37.0
2015-08-15 09:02:00,NAL,11.42,76.57,5.11,66.79,407.1,-43.7,-16.5
2015-08-15 09:03:00,NAL,11.43,76.57,5.11,66.76,391.4,-33.2,4.1
2015-08-15 09:04:00,NAL,11.45,76.57,5.11,66.74,377.6,-45.0,-18.1
2015-08-15 09:05:00,NAL,11.47,76.57,5.11,66.71,390.6,-91.2,-81.4
2015-08-15 09:06:00,NAL,11.48,76.57,5.11,66.68,428.6,-145.6,-68.4
2015-08-15 09:07:00,NAL,11.50,76.57,5.11,66.65,466.0,-43.3,61.1
2015-08-15 09:08:00,NAL,11.52,76.57,5.11,66.63,436.6,-20.9,69.6
2015-08-15 09:09:00,NAL,11.53,76.57,5.11,66.60,417.4,-32.2,45.4
2015-08-15 09:10:00,NAL,11.55,76.57,5.11,66.57,382.5,-42.6,31.8
2015-08-15 09:11:00,NAL,11.57,76.57,5.11,66.55,360.7,-36.3,31.5
2015-08-15 09:12:00,NAL,11.58,76.57,5.11,66.52,346.3,-40.0,26.6
2015-08-15 09:13:00,NAL,11.60,76.57,5.11,66.50,380.9,-73.0,4.8
2015-08-15 09:14:00,NAL,11.62,76.57,5.11,66.47,440.3,-96.3,-13.1
2015-08-15 09:15:00,NAL,11.64,76.57,5.11,66.44,452.5,-60.4,21.4
2015-08-15 09:16:00,NAL,11.65,76.57,5.11,66.42,431.7,-63.4,-6.3
2015-08-15 09:17:00,NAL,11.67,76.57,5.11,66.39,416.3,-65.5,-37.3
2015-08-15 09:18:00,NAL,11.69,76.57,5.11,66.37,422.5,-108.9,-109.8
2015-08-15 09:19:00,NAL,11.70,76.57,5.11,66.34,439.6,-129.2,-128.8
2015-08-15 09:20:00,NAL,11.72,76.57,5.11,66.32,430.1,-92.4,-85.9
2015-08-15 09:21:00,NAL,11.74,76.57,5.11,66.29,412.9,-79.2,-81.8
2015-08-15 09:22:00,NAL,11.75,76.57,5.11,66.27,437.1,-72.2,-80.7
2015-08-15 09:23:00,NAL,11.77,76.57,5.11,66.25,455.8,-79.3,-90.7
2015-08-15 09:24:00,NAL,11.79,76.57,5.11,66.22,469.7,-66.0,-75.1
2015-08-15 09:25:00,NAL,11.80,76.57,5.11,66.20,463.1,-72.9,-50.0
2015-08-15 09:26:00,NAL,11.82,76.57,5.11,66.17,432.0,-33.6,34.4
2015-08-15 09:27:00,NAL,11.84,76.57,5.11,66.15,389.8,42.6,95.9
2015-08-15 09:28:00,NAL,11.85,76.57,5.11,66.13,343.6,73.7,42.5
2015-08-15 09:29:00,NAL,11.87,76.57,5.11,66.10,344.3,45.3,-39.1
2015-08-15 09:30:00,NAL,11.89,76.57,5.11,66.08,377.4,26.5,-44.9
2015-08-15 09:31:00,NAL,11.90,76.57,5.11,66.06,380.8,18.5,-15.5
2015-08-15 09:32:00,NAL,11.92,76.57,5.11,66.04,389.4,12.9,-30.8
2015-08-15 09:33:00,NAL,11.94,76.57,5.11,66.01,387.3,2.6,-39.5
2015-08-15 09:34:00,NAL,11.95,76.57,5.11,65.99,381.4,-6.7,-39.4
2015-08-15 09:35:00,NAL,11.97,76.57,5.11,65.97,438.7,3.9,-35.4
2015-08-15 09:36:00,NAL,11.99,76.57,5.11,65.95,471.1,8.1,-39.7
2015-08-15 09:37:00,NAL,12.00,76.57,5.11,65.93,444.0,-13.1,-56.6
2015-08-15 09:38:00,NAL,12.02,76.57,5.11,65.91,401.9,-29.4,-68.3
2015-08-15 09:39:00,NAL,12.04,76.57,5.11,65.89,364.0,-38.8,-74.2
2015-08-15 09:40:00,NAL,12.05,76.57,5.11,65.86,315.0,-34.1,-51.6
2015-08-15 09:41:00,NAL,12.07,76.57,5.11,65.84,275.2,4.7,-13.5
2015-08-15 09:42:00,NAL,12.09,76.57,5.11,65.82,267.4,34.8,-12.5
2015-08-15 09:43:00,NAL,12.10,76.57,5.11,65.80,318.4,4.9,-59.2
2015-08-15 09:44:00,NAL,12.12,76.57,5.11,65.78,374.8,-34.2,-69.1
2015-08-15 09:45:00,NAL,12.14,76.57,5.11,65.76,407.3,-36.4,-39.0
2015-08-15 09:46:00,NAL,12.15,76.57,5.11,65.74,417.4,-2.6,19.8
2015-08-15 09:47:00,NAL,12.17,76.57,5.11,65.72,427.0,29.2,39.9
2015-08-15 09:48:00,NAL,12.19,76.57,5.11,65.71,425.9,38.1,24.5
2015-08-15 09:49:00,NAL,12.20,76.57,5.11,65.69,392.5,17.9,-1.1
2015-08-15 09:50:00,NAL,12.22,76.57,5.11,65.67,373.6,19.8,-5.1
2015-08-15 09:51:00,NAL,12.24,76.57,5.11,65.65,358.2,12.3,-44.0
2015-08-15 09:52:00,NAL,12.26,76.57,5.11,65.63,352.0,-20.2,-89.8
2015-08-15 09:53:00,NAL,12.27,76.57,5.11,65.61,365.8,-23.2,-59.8
2015-08-15 09:54:00,NAL,12.29,76.57,5.11,65.59,394.9,23.6,-24.0
2015-08-15 09:55:00,NAL,12.31,76.57,5.11,65.58,427.7,47.9,-34.6
2015-08-15 09:56:00,NAL,12.32,76.57,5.11,65.56,452.0,45.1,-47.9
2015-08-15 09:57:00,NAL,12.34,76.57,5.11,65.54,453.1,29.1,-56.5
2015-08-15 09:58:00,NAL,12.36,76.57,5.11,65.52,456.1,13.5,-67.6
2015-08-15 09:59:00,NAL,12.37,76.57,5.11,65.51,463.2,-0.5,-99.3
2015-08-15 10:00:00,NAL,12.39,76.57,5.11,65.49,483.7,-38.0,-143.6
2015-08-15 10:01:00,NAL,12.41,76.57,5.11,65.47,492.3,-25.1,-128.2
2015-08-15 10:02:00,NAL,12.42,76.57,5.11,65.46,472.6,-0.3,-104.8
2015-08-15 10:03:00,NAL,12.44,76.57,5.11,65.44,444.4,10.8,-108.5
2015-08-15 10:04:00,NAL,12.46,76.57,5.11,65.43,441.3,17.9,-111.3
2015-08-15 10:05:00,NAL,12.47,76.57,5.11,65.41,438.2,22.2,-105.0
2015-08-15 10:06:00,NAL,12.49,76.57,5.11,65.40,429.0,22.9,-114.5
2015-08-15 10:07:00,NAL,12.51,76.57,5.11,65.38,436.8,20.9,-133.0
2015-08-15 10:08:00,NAL,12.52,76.57,5.11,65.36,455.1,9.3,-162.8
2015-08-15 10:09:00,NAL,12.54,76.57,5.11,65.35,463.7,-1.6,-179.4
2015-08-15 10:10:00,NAL,12.56,76.57,5.11,65.34,491.0,-5.8,-169.2
2015-08-15 10:11:00,NAL,12.57,76.57,5.11,65.32,490.8,25.5,-134.5
2015-08-15 10:12:00,NAL,12.59,76.57,5.11,65.31,468.8,29.9,-127.8
2015-08-15 10:13:00,NAL,12.61,76.57,5.11,65.29,449.2,52.1,-74.7
2015-08-15 10:14:00,NAL,12.62,76.57,5.11,65.28,399.1,81.0,-37.3
2015-08-15 10:15:00,NAL,12.64,76.57,5.11,65.27,362.2,107.6,-21.6
2015-08-15 10:16:00,NAL,12.66,76.57,5.11,65.25,324.0,135.9,-24.4
2015-08-15 10:17:00,NAL,12.67,76.57,5.11,65.24,305.6,148.9,-48.8
2015-08-15 10:18:00,NAL,12.69,76.57,5.11,65.23,292.2,145.6,-81.6
2015-08-15 10:19:00,NAL,12.71,76.57,5.11,65.21,299.5,144.7,-109.2
2015-08-15 10:20:00,NAL,12.72,76.57,5.11,65.20,318.0,151.2,-119.6
2015-08-15 10:21:00,NAL,12.74,76.57,5.11,65.19,317.1,149.7,-130.1
2015-08-15 10:22:00,NAL,12.76,76.57,5.11,65.18,316.3,142.6,-144.6
2015-08-15 10:23:00,NAL,12.77,76.57,5.11,65.16,320.8,139.9,-149.7
2015-08-15 10:24:00,NAL,12.79,76.57,5.11,65.15,317.6,133.8,-160.2
2015-08-15 10:25:00,NAL,12.81,76.57,5.11,65.14,312.7,131.5,-169.8
2015-08-15 10:26:00,NAL,12.82,76.57,5.11,65.13,294.9,119.5,-182.9
2015-08-15 10:27:00,NAL,12.84,76.57,5.11,65.12,271.1,106.6,-192.6
2015-08-15 10:28:00,NAL,12.85,76.57,5.11,65.11,262.3,101.0,-195.8
2015-08-15 10:29:00,NAL,12.87,76.57,5.11,65.10,257.4,104.9,-191.9
2015-08-15 10:30:00,NAL,12.89,76.57,5.11,65.09,248.1,110.4,-180.9
2015-08-15 10:31:00,NAL,12.90,76.57,5.11,65.08,233.6,103.2,-186.8
2015-08-15 10:32:00,NAL,12.92,76.57,5.11,65.07,231.4,85.3,-219.7
2015-08-15 10:33:00,NAL,12.94,76.57,5.11,65.06,237.7,47.9,-303.2
2015-08-15 10:34:00,NAL,12.95,76.57,5.11,65.05,284.0,-17.3,-425.7
2015-08-15 10:35:00,NAL,12.97,76.57,5.11,65.04,378.7,-36.9,-442.3
2015-08-15 10:36:00,NAL,12.99,76.57,5.11,65.03,416.4,-6.5,-348.8
2015-08-15 10:37:00,NAL,13.00,76.57,5.11,65.02,403.1,26.1,-277.7
2015-08-15 10:38:00,NAL,13.02,76.57,5.11,65.01,388.9,55.9,-233.1
2015-08-15 10:39:00,NAL,13.04,76.57,5.11,65.01,356.8,85.1,-208.3
2015-08-15 10:40:00,NAL,13.05,76.57,5.11,65.00,349.3,104.9,-194.5
2015-08-15 10:41:00,NAL,13.07,76.57,5.11,64.99,337.2,107.7,-197.3
2015-08-15 10:42:00,NAL,13.09,76.57,5.11,64.98,326.8,105.0,-207.6
2015-08-15 10:43:00,NAL,13.10,76.57,5.11,64.97,312.2,110.7,-199.3
2015-08-15 10:44:00,NAL,13.12,76.57,5.11,64.97,298.0,107.6,-193.3
2015-08-15 10:45:00,NAL,13.14,76.57,5.11,64.96,299.4,121.4,-172.2
2015-08-15 10:46:00,NAL,13.15,76.57,5.11,64.95,279.7,117.6,-166.6
2015-08-15 10:47:00,NAL,13.17,76.57,5.11,64.95,263.1,122.0,-161.3
2015-08-15 10:48:00,NAL,13.18,76.57,5.11,64.94,253.4,151.5,-140.6
2015-08-15 10:49:00,NAL,13.20,76.57,5.11,64.93,218.7,166.1,-143.2
2015-08-15 10:50:00,NAL,13.22,76.57,5.11,64.93,196.3,158.6,-171.6
2015-08-15 10:51:00,NAL,13.23,76.57,5.11,64.92,193.8,155.8,-198.8
2015-08-15 10:52:00,NAL,13.25,76.57,5.11,64.92,195.9,148.7,-215.5
2015-08-15 10:53:00,NAL,13.27,76.57,5.11,64.91,204.3,145.9,-221.5
2015-08-15 10:54:00,NAL,13.28,76.57,5.11,64.91,211.9,148.5,-221.1
2015-08-15 10:55:00,NAL,13.30,76.57,5.11,64.90,211.6,139.3,-228.2
2015-08-15 10:56:00,NAL,13.32,76.57,5.11,64.90,200.2,134.2,-229.2
2015-08-15 10:57:00,NAL,13.33,76.57,5.11,64.89,185.0,132.3,-224.5
2015-08-15 10:58:00,NAL,13.35,76.57,5.11,64.89,176.4,129.5,-217.6
2015-08-15 10:59:00,NAL,13.36,76.57,5.11,64.89,158.5,116.4,-227.5
2015-08-15 11:00:00,NAL,13.38,76.57,5.11,64.88,148.7,107.4,-236.4
2015-08-15 11:01:00,NAL,13.40,76.57,5.11,64.88,138.3,100.0,-243.0
2015-08-15 11:02:00,NAL,13.41,76.57,5.11,64.88,124.1,95.3,-251.3
2015-08-15 11:03:00,NAL,13.43,76.57,5.11,64.87,119.6,93.9,-256.4
2015-08-15 11:04:00,NAL,13.45,76.57,5.11,64.87,122.4,111.9,-238.8
2015-08-15 11:05:00,NAL,13.46,76.57,5.11,64.87,110.6,131.1,-220.9
2015-08-15 11:06:00,NAL,13.48,76.57,5.11,64.86,108.4,163.2,-193.2
2015-08-15 11:07:00,NAL,13.49,76.57,5.11,64.86,124.7,184.8,-171.1
2015-08-15 11:08:00,NAL,13.51,76.57,5.11,64.86,126.8,182.8,-176.2
2015-08-15 11:09:00,NAL,13.53,76.57,5.11,64.86,118.4,168.9,-196.0
2015-08-15 11:10:00,NAL,13.54,76.57,5.11,64.86,122.1,158.8,-215.0
2015-08-15 11:11:00,NAL,13.56,76.57,5.11,64.86,135.0,165.7,-219.0
2015-08-15 11:12:00,NAL,13.58,76.57,5.11,64.86,137.5,149.0,-232.6
2015-08-15 11:13:00,NAL,13.59,76.57,5.11,64.85,141.5,131.5,-239.9
2015-08-15 11:14:00,NAL,13.61,76.57,5.11,64.85,151.0,143.2,-221.8
2015-08-15 11:15:00,NAL,13.62,76.57,5.11,64.85,161.3,170.7,-185.6
2015-08-15 11:16:00,NAL,13.64,76.57,5.11,64.85,150.4,189.3,-148.6
2015-08-15 11:17:00,NAL,13.66,76.57,5.11,64.85,138.9,194.3,-117.1
2015-08-15 11:18:00,NAL,13.67,76.57,5.11,64.85,117.4,195.6,-94.1
2015-08-15 11:19:00,NAL,13.69,76.57,5.11,64.85,96.3,205.0,-68.8
2015-08-15 11:20:00,NAL,13.70,76.57,5.11,64.86,71.1,209.0,-49.0
2015-08-15 11:21:00,NAL,13.72,76.57,5.11,64.86,50.7,216.4,-30.1
2015-08-15 11:22:00,NAL,13.74,76.57,5.11,64.86,32.3,223.8,-13.0
2015-08-15 11:23:00,NAL,13.75,76.57,5.11,64.86,16.1,230.4,1.6
2015-08-15 11:24:00,NAL,13.77,76.57,5.11,64.86,-2.3,233.1,7.9
2015-08-15 11:25:00,NAL,13.78,76.57,5.11,64.86,-21.5,243.7,17.2
2015-08-15 11:26:00,NAL,13.80,76.57,5.11,64.87,-34.7,245.2,21.7
2015-08-15 11:27:00,NAL,13.82,76.57,5.11,64.87,-47.3,254.0,29.4
2015-08-15 11:28:00,NAL,13.83,76.57,5.11,64.87,-52.8,260.6,37.1
2015-08-15 11:29:00,NAL,13.85,76.57,5.11,64.87,-59.9,265.7,42.7
2015-08-15 11:30:00,NAL,13.86,76.57,5.11,64.88,-73.4,269.3,44.5
2015-08-15 11:31:00,NAL,13.88,76.57,5.11,64.88,-81.9,280.1,51.5
2015-08-15 11:32:00,NAL,13.89,76.57,5.11,64.88,-90.6,283.1,54.0
2015-08-15 11:33:00,NAL,13.91,76.57,5.11,64.89,-97.7,280.8,49.5
2015-08-15 11:34:00,NAL,13.93,76.57,5.11,64.89,-107.7,280.4,45.9
2015-08-15 11:35:00,NAL,13.94,76.57,5.11,64.90,-118.2,276.8,41.6
2015-08-15 11:36:00,NAL,13.96,76.57,5.11,64.90,-122.0,280.2,43.4
2015-08-15 11:37:00,NAL,13.97,76.57,5.11,64.90,-129.6,285.5,50.1
2015-08-15 11:38:00,NAL,13.99,76.57,5.11,64.91,-137.6,295.6,59.8
2015-08-15 11:39:00,NAL,14.01,76.57,5.11,64.91,-146.0,301.7,67.3
2015-08-15 11:40:00,NAL,14.02,76.57,5.11,64.92,-151.4,301.4,68.5
2015-08-15 11:41:00,NAL,14.04,76.57,5.11,64.93,-153.4,296.3,64.4
2015-08-15 11:42:00,NAL,14.05,76.57,5.11,64.93,-155.6,293.2,60.0
2015-08-15 11:43:00,NAL,14.07,76.57,5.11,64.94,-159.3,290.7,55.4
2015-08-15 11:44:00,NAL,14.08,76.57,5.11,64.94,-161.1,284.6,49.1
2015-08-15 11:45:00,NAL,14.10,76.57,5.11,64.95,-163.3,275.1,38.9
2015-08-15 11:46:00,NAL,14.11,76.57,5.11,64.96,-165.8,272.7,30.8
2015-08-15 11:47:00,NAL,14.13,76.57,5.11,64.96,-168.3,270.2,23.7
2015-08-15 11:48:00,NAL,14.15,76.57,5.11,64.97,-162.2,272.4,20.0
2015-08-15 11:49:00,NAL,14.16,76.57,5.11,64.98,-160.8,272.8,15.9
2015-08-15 11:50:00,NAL,14.18,76.57,5.11,64.98,-154.3,261.8,3.7
2015-08-15 11:51:00,NAL,14.19,76.57,5.11,64.99,-149.8,260.6,-2.0
2015-08-15 11:52:00,NAL,14.21,76.57,5.11,65.00,-145.5,262.2,-2.1
2015-08-15 11:53:00,NAL,14.22,76.57,5.11,65.01,-147.0,262.8,-2.5
2015-08-15 11:54:00,NAL,14.24,76.57,5.11,65.02,-146.4,267.6,1.8
2015-08-15 11:55:00,NAL,14.25,76.57,5.11,65.03,-144.7,270.1,6.1
2015-08-15 11:56:00,NAL,14.27,76.57,5.11,65.03,-145.8,267.8,3.4
2015-08-15 11:57:00,NAL,14.29,76.57,5.11,65.04,-148.0,270.1,1.3
2015-08-15 11:58:00,NAL,14.30,76.57,5.11,65.05,-152.7,270.9,-0.1
2015-08-15 11:59:00,NAL,14.32,76.57,5.11,65.06,-153.4,266.9,-7.7
2015-08-15 12:00:00,NAL,14.33,76.57,5.11,65.07,-155.0,259.8,-17.8
2015-08-15 12:01:00,NAL,14.35,76.57,5.11,65.08,-154.1,254.6,-27.2
2015-08-15 12:02:00,NAL,14.36,76.57,5.11,65.09,-152.9,257.7,-28.7
2015-08-15 12:03:00,NAL,14.38,76.57,5.11,65.10,-149.9,252.1,-36.6
2015-08-15 12:04:00,NAL,14.39,76.57,5.11,65.11,-146.7,255.4,-39.2
2015-08-15 12:05:00,NAL,14.41,76.57,5.11,65.12,-149.5,257.8,-38.9
2015-08-15 12:06:00,NAL,14.42,76.57,5.11,65.14,-147.6,247.0,-49.0
2015-08-15 12:07:00,NAL,14.44,76.57,5.11,65.15,-144.7,246.5,-53.5
2015-08-15 12:08:00,NAL,14.45,76.57,5.11,65.16,-142.1,248.8,-55.3
2015-08-15 12:09:00,NAL,14.47,76.57,5.11,65.17,-137.3,262.6,-49.7
2015-08-15 12:10:00,NAL,14.49,76.57,5.11,65.18,-117.7,265.4,-43.5
2015-08-15 12:11:00,NAL,14.50,76.57,5.11,65.19,-107.3,243.5,-60.1
2015-08-15 12:12:00,NAL,14.52,76.57,5.11,65.21,-103.2,226.4,-78.1
2015-08-15 12:13:00,NAL,14.53,76.57,5.11,65.22,-107.4,217.3,-93.2
2015-08-15 12:14:00,NAL,14.55,76.57,5.11,65.23,-112.6,211.1,-102.9
2015-08-15 12:15:00,NAL,14.56,76.57,5.11,65.25,-119.6,210.9,-108.4
2015-08-15 12:16:00,NAL,14.58,76.57,5.11,65.26,-116.9,217.7,-105.2
2015-08-15 12:17:00,NAL,14.59,76.57,5.11,65.27,-117.8,214.8,-105.9
2015-08-15 12:18:00,NAL,14.61,76.57,5.11,65.29,-113.1,224.8,-100.3
2015-08-15 12:19:00,NAL,14.62,76.57,5.11,65.30,-110.3,208.1,-111.2
2015-08-15 12:20:00,NAL,14.64,76.57,5.11,65.31,-108.5,189.0,-130.4
2015-08-15 12:21:00,NAL,14.65,76.57,5.11,65.33,-110.3,163.8,-158.7
2015-08-15 12:22:00,NAL,14.67,76.57,5.11,65.34,-116.0,147.3,-182.4
2015-08-15 12:23:00,NAL,14.68,76.57,5.11,65.36,-116.4,129.7,-203.5
2015-08-15 12:24:00,NAL,14.70,76.57,5.11,65.37,-115.4,123.9,-211.2
2015-08-15 12:25:00,NAL,14.71,76.57,5.11,65.39,-113.4,119.7,-212.0
2015-08-15 12:26:00,NAL,14.73,76.57,5.11,65.40,-115.3,114.0,-211.4
2015-08-15 12:27:00,NAL,14.74,76.57,5.11,65.42,-117.0,123.0,-199.7
2015-08-15 12:28:00,NAL,14.76,76.57,5.11,65.43,-117.4,144.2,-175.5
2015-08-15 12:29:00,NAL,14.77,76.57,5.11,65.45,-111.5,169.7,-141.9
2015-08-15 12:30:00,NAL,14.79,76.57,5.11,65.47,-105.9,182.0,-117.1
2015-08-15 12:31:00,NAL,14.80,76.57,5.11,65.48,-95.3,187.9,-99.2
2015-08-15 12:32:00,NAL,14.82,76.57,5.11,65.50,-94.8,181.1,-93.9
2015-08-15 12:33:00,NAL,14.83,76.57,5.11,65.52,-101.7,185.9,-89.0
2015-08-15 12:34:00,NAL,14.85,76.57,5.11,65.53,-109.2,190.6,-83.0
2015-08-15 12:35:00,NAL,14.86,76.57,5.11,65.55,-109.5,196.7,-78.2
2015-08-15 12:36:00,NAL,14.88,76.57,5.11,65.57,-111.2,209.5,-68.2
2015-08-15 12:37:00,NAL,14.89,76.57,5.11,65.59,-106.6,212.5,-61.9
2015-08-15 12:38:00,NAL,14.91,76.57,5.11,65.60,-104.3,207.3,-64.2
2015-08-15 12:39:00,NAL,14.92,76.57,5.11,65.62,-105.2,206.8,-66.1
2015-08-15 12:40:00,NAL,14.94,76.57,5.11,65.64,-107.5,204.2,-69.3
2015-08-15 12:41:00,NAL,14.95,76.57,5.11,65.66,-105.6,202.3,-72.4
2015-08-15 12:42:00,NAL,14.97,76.57,5.11,65.68,-101.9,198.1,-74.3
2015-08-15 12:43:00,NAL,14.98,76.57,5.11,65.70,-103.9,195.0,-77.8
2015-08-15 12:44:00,NAL,14.99,76.57,5.11,65.71,-102.6,188.2,-81.5
2015-08-15 12:45:00,NAL,15.01,76.57,5.11,65.73,-100.0,179.1,-90.3
2015-08-15 12:46:00,NAL,15.02,76.57,5.11,65.75,-104.1,175.5,-96.5
2015-08-15 12:47:00,NAL,15.04,76.57,5.11,65.77,-106.5,172.1,-101.9
2015-08-15 12:48:00,NAL,15.05,76.57,5.11,65.79,-109.2,174.5,-102.0
2015-08-15 12:49:00,NAL,15.07,76.57,5.11,65.81,-111.2,179.4,-97.2
2015-08-15 12:50:00,NAL,15.08,76.57,5.11,65.83,-111.4,177.6,-96.4
2015-08-15 12:51:00,NAL,15.10,76.57,5.11,65.85,-114.1,172.7,-100.5
2015-08-15 12:52:00,NAL,15.11,76.57,5.11,65.88,-114.0,160.2,-111.1
2015-08-15 12:53:00,NAL,15.13,76.57,5.11,65.90,-112.1,149.1,-124.2
2015-08-15 12:54:00,NAL,15.14,76.57,5.11,65.92,-110.4,141.5,-132.1
2015-08-15 12:55:00,NAL,15.16,76.57,5.11,65.94,-109.9,134.1,-137.9
2015-08-15 12:56:00,NAL,15.17,76.57,5.11,65.96,-108.7,125.3,-145.3
2015-08-15 12:57:00,NAL,15.19,76.57,5.11,65.98,-107.9,114.3,-156.2
2015-08-15 12:58:00,NAL,15.20,76.57,5.11,66.00,-106.3,104.2,-166.6
2015-08-15 12:59:00,NAL,15.22,76.57,5.11,66.03,-104.7,96.6,-174.5
2015-08-15 13:00:00,NAL,15.23,76.57,5.11,66.05,-104.9,94.8,-177.0
